星链-1975 (STARLINK-1975 )

导读 | 星芒AI

STARLINK-1975 是星链(Starlink)卫星互联网项目中的一个卫星编号,属于美国太空探索技术公司(SpaceX)部署的低轨卫星群之一。该卫星用于提供全球范围内的高速互联网服务,特别是在偏远和网络基础设施薄弱的地区。它运行在约550公里高度的近地轨道,具备高带宽和低延迟特性。星链项目旨在通过数千颗卫星构建一个覆盖全球的通信网络,支持民用和商业用途,并在一定程度上具备抗干扰能力。

基本信息
目录编号:
47573
目录名称:
STARLINK-1975
国际标识:
2021-009AB
轨道中心:
EARTH
卫星名称:
星链-1975
卫星全名:
星链-1975 (STARLINK-1975 )
卫星状态:
在轨 (已飞行1728 天)
发射日期:
2021-02-04 UTC
国别 :
美国 (US)
星等 :
--
轨道信息
数据来源 国际轨道数据
星历时间: 2025-10-29T19:43:44+0800
7小时前
查看轨道信息
半长轴: 6832.999km
偏心率: 0.0010922
轨道倾角: 53.062°
近地点辐角 66.499°
升交点赤经 223.345°
平近点角 293.716°
近地点: 447.4km
远地点: 462.328km
周期: 93.686分钟
每日圈数: 15.370421
详细信息
固有亮度:
5
最大亮度:
2.5
卫星平台:
Starlink V1.0
覆盖范围:
全球
运营商:
太空探索技术公司
运营商所在国:
美国
制造商(研发单位):
太空探索技术公司
制造商所在国:
美国
使用方式:
暂无
卫星简介
星链(Starlink)计划是由太空探索技术公司(SpaceX)提出的一个巨型低轨卫星互联网星座项目,计划在2019年至2024年间在太空搭建由约1.2万颗卫星组成的“星链”网络,其中1584颗将部署在地球上空550千米处的近地轨道,并从2020年开始工作。该卫星仍在工作。
2D轨道图
3D轨道图
轨道高度分析图
轨道倾角分析图
轨道综合分析图
查看轨道综合分析图